Flag for Brazil Weather past 2 weeks in Itabuna, Bahia, Brazil

Now
81 °F

Passing clouds.


Feels Like: 82 °F
Forecast: 69 / 75 °F
Wind: 9 mph from East

Location: Salvador Aeroporto

Current Time: Oct 23, 2014 at 9:51:16 AM

Latest Report: Oct 23, 2014 at 9:00 AM


Visibility: N/A

Pressure: 30.07 "Hg

Humidity: 58%

Dew point: 64 °F

Location of ItabunaLocation

Historic Weather in Itabuna — Graph

°F

Itabuna temperature yesterday

Maximum temperature yesterday: 82 °F (at 9:00 AM)
Minimum temperature yesterday: 75 °F (at 4:00 AM)
Average temperature yesterday: 79 °F

Past Weeks' High & Low Weather Summary

 TemperatureHumidityPressure
High84 °F (Oct 14, 3:00 PM)89% (Oct 12, 8:00 AM)30.12 "Hg (Oct 12, 8:00 AM)
Low72 °F (Oct 15, 5:00 AM)55% (Oct 14, 3:00 PM)29.86 "Hg (Oct 20, 2:00 PM)
Average78 °F71%30.01 "Hg
* Reported Oct 8 8:00 AM — Oct 23 8:00 AM, Itabuna, Weather by CustomWeather, © 2014

Note: Actual official high and low records may vary slightly from our data, if they occured in-between our weather recording intervals... More about our weather records

Advertising

Itabuna weather history for previous 24 hours

 ConditionsComfort  
Time TempWeatherWind HumidityBarometerVisibility
8:00 AM
Oct 23
79 °FPassing clouds.9 mph61%30.07 "HgN/A
7:00 AM79 °FScattered clouds.9 mph65%30.04 "HgN/A
6:00 AM77 °FPassing clouds.9 mph69%30.04 "HgN/A
5:00 AM77 °FPassing clouds.8 mph69%30.01 "HgN/A
4:00 AM77 °FPassing clouds.9 mph69%30.01 "HgN/A
3:00 AM77 °FPassing clouds.9 mph69%30.01 "HgN/A
2:00 AM77 °FPassing clouds.8 mph69%30.01 "HgN/A
1:00 AM77 °FPassing clouds.10 mph69%30.04 "HgN/A
12:00 AM77 °FPassing clouds.7 mph69%30.04 "HgN/A
11:00 PM
Oct 22
77 °FPassing clouds.7 mph65%30.07 "HgN/A
10:00 PM77 °FPassing clouds.7 mph61%30.07 "HgN/A
9:00 PM77 °FPassing clouds.7 mph61%30.07 "HgN/A
8:00 PM77 °FPassing clouds.6 mph57%30.04 "HgN/A
7:00 PM77 °FPassing clouds.10 mph61%30.01 "HgN/A
6:00 PM79 °FScattered clouds.8 mph61%30.01 "HgN/A
5:00 PM81 °FScattered clouds.9 mph62%29.98 "HgN/A
4:00 PM81 °FPassing clouds.10 mph62%29.95 "HgN/A
3:00 PM81 °FPassing clouds.12 mph58%29.95 "HgN/A
2:00 PM82 °FPassing clouds.12 mph58%29.98 "HgN/A
1:00 PM82 °FPassing clouds.13 mph58%29.98 "HgN/A
12:00 PM82 °FScattered clouds.10 mph55%30.01 "HgN/A
11:00 AM82 °FPassing clouds.14 mph58%30.04 "HgN/A
10:00 AM81 °FPassing clouds.15 mph66%30.04 "HgN/A
9:00 AM82 °FPassing clouds.12 mph58%30.04 "HgN/A
Weather by CustomWeather, © 2014

See weather overviewHow to use our weather pages